Regional Weather Roundup
Issued by NWS Northern Indiana

Home | Current Version | Previous Version | Graphics & Text | Print | Product List | Glossary On
Versions: 1 2 3 4 5 6 7 8 9 10 11 12 13 14 15 16 17 18 19 20 21 22 23 24 25 26 27 28 29 30 31 32 33 34 35 36 37 38 39 40 41 42 43 44 45 46 47 48 49 50
000
ASUS43 KIWX 200510
RWRIWX

KIWX WEATHER ROUNDUP
NATIONAL WEATHER SERVICE NORTHERN INDIANA
1200 AM EST MON NOV 20 2017

NOTE: "FAIR" INDICATES FEW OR NO CLOUDS BELOW 12,000 FEET WITH NO
SIGNIFICANT WEATHER AND/OR OBSTRUCTIONS TO VISIBILITY.

* THESE STATIONS ARE NOT UNDER NWS QUALITY CONTROL. THEY ALSO MAY NOT
  REPORT WEATHER SUCH AS PRECIPITATION OR FOG.

INZ001>027-200600-
NORTHERN INDIANA

CITY           SKY/WX    TMP DP  RH WIND       PRES   REMARKS
GARY*          CLOUDY    31  20  64 SW3       30.09F
VALPARAISO     CLEAR     29  22  75 SW12      30.09S WCI  19
MICHIGAN CITY* CLEAR     28  21  74 SW8       30.09S WCI  20
LAPORTE*       PTCLDY    28  20  73 W8        30.08F WCI  20
KNOX*          PTCLDY    28  23  80 W6        30.10R WCI  22
SOUTH BEND     CLEAR     26  21  81 SW8       30.07F WCI  18
GOSHEN         CLEAR     28  20  71 W13       30.07R WCI  17
MONTICELLO*    CLEAR     28  22  79 SW5       30.12R WCI  22
LOGANSPORT*    CLEAR     27  23  86 SW6       30.13R WCI  20
ROCHESTER*     CLEAR     30  25  80 W6        30.11R WCI  24
WARSAW*        CLEAR     28  21  74 W7        30.09S WCI  21
AUBURN*        CLEAR     30  21  69 SW7       30.08R WCI  23
FORT WAYNE     CLEAR     30  23  75 W13       30.09S WCI  20
HUNTINGTON*    CLEAR     27  21  77 W7        30.10S WCI  20
PERU/GRISSOM   CLEAR     27  24  89 W9        30.11R WCI  18
MARION*        CLEAR     28  25  86 W8        30.13R WCI  20

$$
INZ028>050-200600-
CENTRAL INDIANA

CITY           SKY/WX    TMP DP  RH WIND       PRES   REMARKS
LAFAYETTE      CLEAR     27  23  85 SW5       30.14F WCI  22
MUNCIE*        CLEAR     29  22  75 W7        30.12S WCI  22
INDIANAPOLIS   CLEAR     26  21  81 SW8       30.15F WCI  18

$$
MIZ043>046-050>051-056>058-064>065-071>073-077>080-200600-
SOUTHWEST LOWER MICHIGAN

CITY           SKY/WX    TMP DP  RH WIND       PRES   REMARKS
BATTLE CREEK   CLOUDY    29  22  75 SW9       30.01S WCI  20
BENTON HARBOR  CLEAR     35  24  64 W18       30.05S WCI  24
COLDWATER*     CLEAR     28  21  75 SW7       30.03S WCI  21
HILLSDALE*     CLOUDY    28  21  74 W9        30.01S WCI  20
HOLLAND        MOCLDY    36  26  67 W13       30.01F
GRAND RAPIDS   CLOUDY    33  25  72 W9        29.98S WCI  25
KALAMAZOO      CLEAR     29  20  69 SW6       30.02S WCI  23
STURGIS*       CLEAR     27  21  80 SW6       30.04R WCI  20
THREE RIVERS*  FAIR      29  22  74 SW6       30.04S WCI  23

$$
OHZ001>008-015>018-024>025-200600-
NORTHWEST OHIO

CITY           SKY/WX    TMP DP  RH WIND       PRES   REMARKS
WAUSEON*       CLOUDY    28  27  93 W13       30.04S WCI  18
DEFIANCE       CLEAR     29  21  72 SW8       30.08R WCI  21
FINDLAY        PTCLDY    30  23  75 SW12      30.07R WCI  20
TOLEDO EXPRESS CLOUDY    32  24  72 SW14      30.05R WCI  22
TOLEDO METCALF CLOUDY    32  23  69 SW15      30.06R WCI  22
LIMA           CLEAR     28  25  88 SW12      30.09R WCI  18

$$
AND FOR LAKE MICHIGAN COASTAL AND OPEN LAKE BUOY OBSERVATIONS

STATION/POSITION TEMP    WIND        PRES    VSBY  WAVE
                 AIR SEA DIR/SP/G                  HT/PER
                 (F)     (DEG/KT/KT) (MB)    (MI)  (FT/S)
CALUMET HARBOR    31     220/  5/ 11 1017.7F
MICHIGAN CITY     31     190/ 12/ 15   N/A
BURNS HARBOR      30     210/  8/ 12 1019.3S
SAINT JOSEPH      38     260/ 18/ 25 1018.3
SOUTH LAKE BUOY   37 49  290/ 19/ 25 1017.0          5/ 5

$$
&&




USA.gov is the U.S. government's official web portal to all federal, state and local government web resources and services.